Regional Weather Roundup
Issued by NWS Grand Forks, ND

Home | Current Version | Previous Version | Graphics & Text | Print | Product List | Glossary On
Versions: 1 2 3 4 5 6 7 8 9 10 11 12 13 14 15 16 17 18 19 20 21 22 23 24 25 26 27 28 29 30 31 32 33 34 35 36 37 38 39 40 41 42 43 44 45 46 47 48 49 50
000
ASUS43 KFGF 181410
RWRFGF
PRAIRIE TO PINES  WEATHER ROUNDUP
NATIONAL WEATHER SERVICE EASTERN NORTH DAKOTA/GRAND FORKS ND
800 AM CST SAT NOV 18 2017

 **SATELLITE DATA USED TO AUGMENT SKY COVER AT AUTOMATED STATIONS**
 *****  WEATHER ACROSS EASTERN NORTH DAKOTA  *****

CITY           SKY/WX    TMP DP  RH WIND       PRES   REMARKS
GRAND FORKS    FAIR      16  10  77 NW12      29.97R WCI   3
GRAND FRKS AFB FAIR      16   9  74 NW15      29.97R WCI   1
GRAND FRKS NWS   N/A     16 N/A N/A N10         N/A  WCI   3
DEVILS LAKE    FAIR      12   8  84 NW20      29.97R WCI  -6
FARGO          CLOUDY    22  13  68 NW17G25   29.96R WCI   8
WAHPETON ARPT  NOT AVBL
$$

 ***** WEATHER ACROSS CENTRAL AND WESTERN NORTH DAKOTA  *****

CITY           SKY/WX    TMP DP  RH WIND       PRES   REMARKS
BISMARCK       FAIR      20  15  81 W7        30.08R WCI  11
MINOT          FAIR      15   9  76 W13       30.04R WCI   1
JAMESTOWN      FAIR      15  11  83 NW15      29.98R WCI   0
MINOT AFB      FAIR      12   7  80 NW14      30.04R WCI  -3
GARRISON         N/A     13   8  81 NW16      30.04R WCI  -3
WILLISTON      FAIR      12   7  80 W8        30.11R WCI   0
DICKINSON      FAIR      11   7  84 W8        30.05R WCI  -1
HETTINGER      FAIR      16  11  80 NW10      30.08R WCI   4
$$

 *****  OTHER AIRPORT OBSERVATIONS IN OUR AREA  *****

CITY           SKY/WX    TMP DP  RH WIND       PRES   REMARKS
WALHALLA       FAIR      16  10  79 NW14G24   29.97R WCI   1
GRAFTON AIRPOR FAIR      14   9  79 NW13      29.99R WCI   0
VALLEY CITY AR FLURRIES  16  14  93 NW16      29.99R WCI   0
CANDO          FAIR      10  10 100 NW15      30.00R WCI  -6
CAVALIER APRT  CLOUDY    16  10  79 NW14G22   29.97R WCI   1
GWINNER          N/A     21  16  79 NW14      29.98R WCI   8
SHEYENNE NWR     N/A     21  14  73 N9        29.95S WCI  11
ROLLA          FAIR       9   5  85 NW16G24   29.95R WCI  -9
 ***** THE ABOVE OBSERVATIONS ARE NON NWS ARE NOT QUALITY
       CONTROLLED AND MAY MIS-REPORT RAIN FOR SNOW...
$$

  *****  WEATHER ACROSS NORTHERN MINNESOTA  *****

CITY           SKY/WX    TMP DP  RH WIND       PRES   REMARKS
FLAG ISLAND    CLOUDY    14  10  85 W10       29.85R WCI   1
WARROAD        CLOUDY    14  10  85 W6        29.88R WCI   5
ROSEAU         CLOUDY    16  12  86 W10       29.89R WCI   3
HALLOCK        FAIR      14  10  85 NW10      29.95R WCI   1
THF RVR FALLS  CLOUDY    15  10  80 NW14      29.93R WCI   0
BAUDETTE       CLOUDY    16  13  88 W7        29.84R WCI   6
WASKISH        CLOUDY    18  12  79 NW8       29.85R WCI   7
CROOKSTON      FLURRIES  18  12  79 NW14      29.96R WCI   4
STEPHEN NDAWN    N/A     14   9  79 NW8         N/A  WCI   3
GREENBUSH NDAW   N/A     12  10  92 W9          N/A  WCI   0
$$
  *****  WEATHER ACROSS CENTRAL AND WEST MINNESOTA  *****

CITY           SKY/WX    TMP DP  RH WIND       PRES   REMARKS
FOSSTON        FAIR      12  10  92 NW10      29.90R WCI  -1
BEMIDJI        FAIR      15  12  88 W7        29.85R WCI   5
PARK RAPIDS    CLOUDY    20  14  77 NW7       29.84R WCI  11
ELBOW LAKE     PTSUNNY   19  17  89 W13G20    29.91R FOG     WCI   7
WADENA         CLOUDY    19  16  86 NW9       29.87R WCI   9
DETROIT LAKES  FAIR      19  16  86 NW10      29.90R WCI   8
MOORHEAD       CLOUDY    19  12  73 NW16      29.96R WCI   5
FERGUS FALLS   MOCLDY    18  16  93 NW9       29.96R WCI   6
MORRIS MN      FAIR      19  16  86 NW15      29.90R WCI   5
STAPLES        CLOUDY    19  18  93 NW7       29.85R WCI  10
$$
  *****  WEATHER ELSEWHERE ACROSS MINNESOTA  *****

CITY           SKY/WX    TMP DP  RH WIND       PRES   REMARKS
DULUTH         MOCLDY    22  20  92 NW15G24   29.74R WCI   9
INTRNTL FALLS  CLOUDY    17  13  84 W3        29.82R FOG
ELY            CLOUDY    21  19  93 N6        29.77R WCI  14
CLOQUET        FAIR      21  18  86 NW12      29.76R WCI   9
WHEATON        CLOUDY    21  16  79 NW14G21   29.96R WCI   8
BRAINERD       FAIR      22  16  78 NW12      29.84R WCI  10
HIBBING        FAIR      15  13  91 NW7       29.80R WCI   5
ALEXANDRIA     CLOUDY    21  17  84 NW10      29.87R WCI  10
SAINT CLOUD    FAIR      26  22  84 NW9       29.82R WCI  17
MINNEAPOLIS    MOCLDY    32  29  88 NW10      29.79R WCI  24
$$

  *****  WEATHER ACROSS SOUTH DAKOTA  *****

CITY           SKY/WX    TMP DP  RH WIND       PRES   REMARKS
SIOUX FALLS    FAIR      30  22  72 NW8       29.90R WCI  22
BROOKINGS      FAIR      25  20  81 N9        29.90R WCI  15
WATERTOWN      MOCLDY    21  17  84 NW14      29.91R WCI   8
HURON          MOCLDY    23  19  85 NW8       29.98R WCI  14
SISSETON         N/A     24  17  74 NW17      29.94R WCI  11
ABERDEEN       CLOUDY    22  18  85 NW6       30.00R WCI  14
MITCHELL       FAIR      23  20  88 NW7       29.98R WCI  15
PIERRE         FAIR      30  26  85 N15       30.04R WCI  19
MOBRIDGE       FAIR      22  15  75 NW18G25   30.02R WCI   7
RAPID CITY     FAIR      33  18  53 NW15      30.10R WCI  23
$$

  *****  SOME WEATHER IN NEARBY STATES *****

CITY           SKY/WX    TMP DP  RH WIND       PRES   REMARKS
GLASGOW MT     CLOUDY    12   9  87 W5        30.10S WCI   4
GREAT FALLS MT FAIR      34  18  52 SW17G29   30.10R WCI  23
CHEYENNE WY    FAIR      22  11  62 NW12      30.16R WCI  10
SCOTTSBLUFF NE FAIR      25  18  74 W9        30.19R WCI  15
OMAHA NE       MOCLDY    38  32  79 N16G28    29.85R
DES MOINES IA  CLOUDY    39  36  89 N16G22    29.68R FOG
DAVENPORT IA   LGT RAIN  39  37  92 N22G33    29.56R
CHICAGO IL     LGT RAIN  43  39  86 N16       29.47R
EAU CLAIRE WI  CLOUDY    35  31  85 NW7       29.71R FOG
LA CROSSE WI   CLOUDY    38  35  89 N8        29.69R
$$

  *****  SOME NATIONAL WEATHER *****

CITY           SKY/WX    TMP DP  RH WIND       PRES   REMARKS
LA GUARDIA NY  PTSUNNY   43  26  51 CALM      29.95F
RALEIGH NC     PTSUNNY   48  41  76 SW10      30.02F
ATLANTA GA     FOG       51  50  96 VRB7      30.01F VSB 1
NEW ORLEANS LA FAIR      70  68  93 S9        29.94R
OKLAHOMA CITY  MOCLDY    51  38  60 N26G43    29.85R
ALBUQUERQUE NM FAIR      37  13  37 N17       30.29R
SALT LAKE CITY FAIR      31  21  66 SE8       30.44R WCI  23
LOS ANGELES CA FAIR      59  55  87 VRB5      30.12R
BOISE ID       FAIR      31  23  72 SE9       30.39S WCI  23
SEATTLE WA     CLOUDY    46  38  73 S8        30.29S
$$

*** WEATHER ACROSS MANITOBA...SASKATCHEWAN AND ONTARIO ***
                ***ONTARIO***

CITY           SKY/WX    TMP DP  RH WIND       PRES   REMARKS
GERALDTON      CLOUDY    23  21  93 N6        29.67R FOG     WCI  16
THUNDER BAY    MOCLDY    27  23  86 NW7       29.73R WCI  19
SIOUX LOOKOUT  FLURRIES  16  12  86 NW7       29.76R WCI   6
TORONTO        DRIZZLE   41  37  87 SE3       29.55R FOG
BIG TROUT LK   FLURRIES  10   7  85 W8        29.68S WCI  -1
PICKLE LAKE    FLURRIES  14  12  92 NW6       29.73R WCI   5
DRYDEN         FLURRIES  12  10  92 W5        29.77S WCI   4
KENORA         FLURRIES  14  12  92 NW7       29.81R WCI   4
$$
                *** MANITOBA***

CITY           SKY/WX    TMP DP  RH WIND       PRES   REMARKS
BRANDON        CLEAR      5   0  78 W13G18    29.98R WCI -12
DAUPHIN        CLEAR      7   1  78 W22       29.94S WCI -14
ISLAND LAKE    FLURRIES   9   1  72 W22G28    29.76R WCI -11
PILOT MOUND      N/A     10   5  79 NW21G28     N/A  WCI  -9
THE PAS        FLURRIES  10   3  72 W16G25    29.86S WCI  -7
THOMPSON       PTCLDY     0  -6  78 W12       29.68S WCI -18
WINNIPEG       FLURRIES  14   9  79 NW13      29.95R WCI   0
LYNN LAKE      PTCLDY     5   0  78 W18G25    29.65R WCI -15
CHURCHILL      CRYSTALS   0  -6  78 SW14G21   29.47S WCI -19
$$
                ***SASKATCHEWAN***

CITY           SKY/WX    TMP DP  RH WIND       PRES   REMARKS
ESTEVAN        PTCLDY     9   3  78 W10       30.06R WCI  -6
KINDERSLEY     CRYSTALS  -2  -8  78 SW7       29.97F WCI -16
LLOYDMINSTER   PTCLDY    -2  -4  92 S7        29.89F WCI -16
PRINCE ALBERT  PTCLDY    -2  -8  78 W8        30.00F WCI -17
REGINA         PTCLDY     0  -6  78 NW10      30.03S WCI -17
YORKTON        PTCLDY    -2  -6  84 W9        29.98R WCI -18
N. BATTLEFORD  NOT AVBL
LA RONGE       MOCLDY     1  -4  78 W7        29.91R WCI -11
SASKATOON      PTCLDY    -9 -15  77 W7        30.04S WCI -24
SWIFT CURRENT  CLEAR      5   1  85 SW13      29.98F WCI -12
$$
NOTE: THESE ARE AUTOMATED STATIONS WITH LIMITED QUALITY CONTROL
      "FAIR" INDICATES FEW OR NO CLOUDS BELOW 12,000 FEET WITH NO
      SIGNIFICANT WEATHER AND/OR OBSTRUCTIONS TO VISIBILITY.
      SKY/WX - SKY CONDITION AND SIGNIFICANT WEATHER.
      TMP - AIR TEMPERATURE.    DP   - DEWPOINT TEMPERATURE.
      RH  - RELATIVE HUMIDITY.  PRES - PRESSURE.
      HX  - HEAT INDEX.         WCI  - WIND CHILL INDEX.
$




USA.gov is the U.S. government's official web portal to all federal, state and local government web resources and services.